FW0810 Weather Reports


time (UTC)temp
C
wind
direction
speed
KPH
gust
KPH
rain 1hr
cm
rain 24hr
cm
rain mn
cm
humidity
%
barometer
mb
20260507070543 17 1 0.0 1.6 0.00 0.25 0.25 83 1017.4
20260507070043 17 1 0.0 3.2 0.00 0.25 0.25 83 1017.4
20260507065039 17 1 0.0 0.0 0.00 0.25 0.25 85 1017.3
20260507064541 16 1 0.0 0.0 0.00 0.25 0.25 85 1017.3
20260507064036 16 1 0.0 0.0 0.00 0.25 0.25 85 1017.2
20260507063533 16 1 0.0 0.0 0.00 0.25 0.25 85 1017.2
20260507062529 16 1 0.0 3.2 0.00 0.25 0.25 85 1017.2
20260507062027 16 1 0.0 3.2 0.00 0.25 0.25 85 1017.2
20260507061525 16 115 0.0 0.0 0.00 0.25 0.25 86 1017.2
20260507061026 16 116 0.0 0.0 0.00 0.25 0.25 86 1017.2
20260507060524 16 116 0.0 0.0 0.00 0.25 0.25 86 1017.3
20260507060025 16 119 0.0 1.6 0.00 0.25 0.25 87 1017.3
20260507055525 16 120 0.0 3.2 0.00 0.25 0.25 88 1017.2
20260507054525 15 160 0.0 0.0 0.00 0.25 0.25 90 1017.2
20260507054031 15 161 0.0 0.0 0.00 0.25 0.25 90 1017.2
20260507053523 15 161 0.0 0.0 0.00 0.25 0.25 92 1017.0
20260507053023 15 161 0.0 0.0 0.00 0.25 0.25 92 1017.0
20260507052521 15 161 0.0 0.0 0.00 0.25 0.25 92 1016.9
20260507052018 14 180 0.0 0.0 0.00 0.25 0.25 92 1016.9
20260507051519 14 180 0.0 0.0 0.00 0.25 0.25 92 1016.9
20260507051015 14 181 0.0 0.0 0.00 0.25 0.25 92 1017.0
20260507050513 14 181 0.0 0.0 0.00 0.25 0.25 92 1017.0
20260507050013 14 181 0.0 0.0 0.00 0.25 0.25 92 1017.1
20260507045511 14 181 0.0 0.0 0.00 0.25 0.25 91 1016.9
20260507045008 14 181 0.0 0.0 0.00 0.25 0.25 92 1016.8
20260507044511 14 181 0.0 0.0 0.00 0.25 0.25 92 1016.8
20260507044008 14 181 0.0 0.0 0.00 0.25 0.25 91 1016.7
20260507043505 14 181 0.0 0.0 0.00 0.25 0.25 91 1016.8
20260507043006 14 181 0.0 0.0 0.00 0.25 0.25 91 1016.6
20260507042505 14 245 0.0 0.0 0.00 0.25 0.25 91 1016.6
20260507042005 14 245 0.0 0.0 0.00 0.25 0.25 91 1016.6
20260507041005 14 245 0.0 0.0 0.00 0.25 0.25 91 1016.5
20260507040504 14 245 0.0 0.0 0.00 0.25 0.25 91 1016.4
20260507040004 14 245 0.0 0.0 0.00 0.25 0.25 91 1016.3
20260507035504 14 245 0.0 0.0 0.00 0.25 0.25 91 1016.4
20260507035002 14 245 0.0 0.0 0.00 0.25 0.25 91 1016.4
20260507034000 14 245 0.0 0.0 0.00 0.25 0.25 91 1016.3
20260507033501 14 245 0.0 0.0 0.00 0.25 0.25 91 1016.3
20260507033000 14 245 0.0 0.0 0.00 0.25 0.25 91 1016.2
20260507032500 14 245 0.0 0.0 0.00 0.25 0.25 90 1016.2
20260507032000 14 245 0.0 0.0 0.00 0.25 0.25 90 1016.2
20260507031000 14 245 0.0 0.0 0.00 0.25 0.25 90 1016.3
20260507030455 14 246 0.0 0.0 0.00 0.25 0.25 90 1016.3
20260507025956 14 246 0.0 0.0 0.00 0.25 0.25 90 1016.1
20260507024457 14 246 0.0 0.0 0.00 0.25 0.25 90 1016.3
20260507023005 14 140 0.0 1.6 0.00 0.25 0.25 90 1016.3
20260507022451 14 134 0.0 0.0 0.00 0.25 0.25 90 1016.3
20260507021951 14 133 0.0 0.0 0.00 0.28 0.25 90 1016.3
20260507021450 15 133 0.0 0.0 0.00 0.28 0.25 90 1016.2
20260507020950 15 134 0.0 0.0 0.03 0.28 0.25 89 1016.1
20260507020449 15 138 0.0 0.0 0.05 0.28 0.25 89 1016.2
20260507015955 15 138 0.0 0.0 0.05 0.28 0.25 89 1016.2
20260507015444 15 138 0.0 3.2 0.08 0.28 0.25 89 1016.2
20260507014936 15 138 0.0 4.8 0.08 0.28 0.25 89 1016.1
20260507014431 15 171 0.0 6.4 0.08 0.28 0.25 89 1016.2
20260507013925 15 182 0.0 6.4 0.08 0.28 0.25 89 1016.1
20260507013425 15 200 0.0 3.2 0.10 0.28 0.25 89 1016.2
20260507012926 15 200 0.0 3.2 0.15 0.28 0.25 88 1016.2
20260507011931 15 169 0.0 4.8 0.18 0.28 0.25 88 1016.2
20260507011424 15 226 0.0 4.8 0.18 0.25 0.25 88 1016.2
20260507010929 15 274 0.0 8.0 0.18 0.25 0.23 88 1016.2
20260507010426 15 282 1.6 8.0 0.18 0.23 0.23 88 1016.2
20260507005925 15 243 1.6 9.7 0.15 0.23 0.20 88 1016.2
20260507004924 16 115 0.0 0.0 0.15 0.20 0.18 90 1016.1
20260507004422 16 115 0.0 0.0 0.15 0.20 0.18 89 1016.1
20260507003924 16 115 0.0 0.0 0.15 0.20 0.18 89 1016.1
20260507003420 16 115 0.0 0.0 0.15 0.18 0.15 89 1016.1
20260507002420 16 115 0.0 0.0 0.08 0.13 0.10 88 1016.1
20260507001919 16 115 0.0 0.0 0.08 0.10 0.08 88 1016.1
20260507001429 16 115 0.0 3.2 0.05 0.08 0.05 88 1016.2
20260507000412 16 176 0.0 0.0 0.05 0.05 0.05 88 1016.2
20260506235905 16 160 0.0 0.0 0.05 0.05 0.05 88 1016.1
20260506235358 16 160 0.0 0.0 0.05 0.05 0.05 88 1016.1
20260506234347 16 187 0.0 0.0 0.03 0.05 0.03 87 1016.0
20260506233842 16 186 0.0 0.0 0.03 0.05 0.03 87 1016.1
20260506232830 16 217 0.0 0.0 0.03 0.05 0.03 86 1016.0
20260506232322 16 108 0.0 3.2 0.00 0.03 0.00 86 1016.0
20260506231818 16 108 0.0 3.2 0.00 0.03 0.00 86 1016.0
20260506231310 16 105 0.0 0.0 0.00 0.03 0.00 86 1016.0
20260506230806 16 105 0.0 0.0 0.00 0.03 0.00 86 1016.1
20260506225752 16 106 0.0 3.2 0.00 0.03 0.00 85 1016.2
20260506225246 16 106 0.0 3.2 0.00 0.03 0.00 85 1016.3
20260506224742 16 113 0.0 0.0 0.00 0.03 0.00 84 1016.2
20260506224244 17 113 0.0 0.0 0.00 0.03 0.00 84 1016.4
20260506223742 16 113 0.0 0.0 0.00 0.03 0.00 84 1016.4
20260506223241 16 113 0.0 3.2 0.00 0.03 0.00 84 1016.5
20260506222740 16 113 0.0 3.2 0.00 0.03 0.00 84 1016.5
20260506222239 17 122 0.0 0.0 0.00 0.03 0.00 83 1016.4
20260506221736 16 122 0.0 3.2 0.00 0.03 0.00 83 1016.4
20260506221234 16 122 0.0 4.8 0.00 0.03 0.00 83 1016.4
20260506220732 16 105 0.0 4.8 0.00 0.03 0.00 83 1016.4
20260506220232 17 101 0.0 3.2 0.00 0.03 0.00 83 1016.3
20260506215733 17 89 0.0 0.0 0.00 0.03 0.03 83 1016.3
20260506215230 17 89 0.0 0.0 0.00 0.03 0.03 83 1016.2
20260506214730 17 89 0.0 3.2 0.00 0.03 0.03 83 1016.4
20260506213729 17 94 0.0 3.2 0.00 0.03 0.03 83 1016.2
20260506213228 17 94 0.0 3.2 0.00 0.03 0.03 83 1016.2
20260506212725 17 92 0.0 3.2 0.00 0.03 0.03 82 1016.3
20260506211723 17 124 0.0 0.0 0.00 0.03 0.03 82 1016.3
20260506211219 17 126 1.6 9.7 0.00 0.03 0.03 82 1016.4
20260506210217 17 71 0.0 0.0 0.00 0.03 0.03 82 1016.3
20260506205714 17 46 0.0 3.2 0.00 0.03 0.03 82 1016.3
20260506205214 17 314 0.0 3.2 0.00 0.03 0.03 82 1016.3
20260506204714 17 96 0.0 0.0 0.00 0.03 0.03 82 1016.3
20260506204211 17 96 0.0 3.2 0.00 0.03 0.03 82 1016.3
20260506203709 17 89 0.0 3.2 0.00 0.03 0.03 82 1016.2
20260506203209 17 145 0.0 0.0 0.00 0.03 0.03 82 1016.2
20260506201706 17 152 0.0 0.0 0.00 0.03 0.03 81 1016.2
20260506201204 17 152 0.0 3.2 0.00 0.03 0.03 81 1016.2
20260506200158 17 150 0.0 0.0 0.00 0.03 0.03 80 1016.2
20260506195701 17 144 0.0 0.0 0.00 0.03 0.03 80 1016.1
20260506195155 17 144 0.0 4.8 0.00 0.03 0.03 80 1016.0
20260506194644 17 139 1.6 6.4 0.00 0.03 0.03 80 1016.0
20260506194140 17 138 1.6 6.4 0.00 0.03 0.03 80 1015.8
20260506193633 17 169 0.0 4.8 0.00 0.03 0.03 80 1015.7
20260506193126 17 160 0.0 4.8 0.00 0.03 0.03 79 1015.6
20260506192620 17 163 1.6 9.7 0.00 0.03 0.03 79 1015.6
20260506192115 17 160 1.6 9.7 0.00 0.03 0.03 79 1015.6
20260506191609 17 199 1.6 8.0 0.00 0.03 0.03 79 1015.6
20260506191118 17 139 1.6 9.7 0.00 0.03 0.03 78 1015.6
20260506190104 17 140 0.0 4.8 0.00 0.03 0.03 77 1015.4
20260506185545 17 140 1.6 6.4 0.00 0.03 0.03 77 1015.3
20260506185040 17 155 3.2 14.5 0.00 0.03 0.03 77 1015.2
20260506184027 17 158 1.6 9.7 0.00 0.03 0.03 77 1014.9
20260506183520 17 155 1.6 8.0 0.00 0.03 0.03 77 1014.9
20260506183015 17 188 1.6 11.3 0.00 0.03 0.03 76 1015.0
20260506182508 17 304 0.0 11.3 0.00 0.03 0.03 76 1015.1
20260506182003 18 179 0.0 6.4 0.00 0.03 0.03 75 1015.1
20260506181501 18 293 0.0 4.8 0.00 0.03 0.03 75 1015.2
20260506181002 18 107 0.0 4.8 0.00 0.03 0.03 75 1015.1
20260506180500 18 147 0.0 6.4 0.00 0.03 0.03 75 1015.1
20260506175458 18 198 1.6 8.0 0.00 0.03 0.03 75 1015.2
20260506174958 18 281 1.6 8.0 0.00 0.03 0.03 74 1015.1
20260506174457 18 195 1.6 11.3 0.00 0.03 0.03 74 1015.1
20260506173956 18 146 1.6 11.3 0.00 0.03 0.03 74 1015.0
20260506173456 18 193 3.2 16.1 0.00 0.03 0.03 74 1015.1
20260506172954 18 290 1.6 16.1 0.00 0.03 0.03 74 1015.1
20260506172454 18 162 1.6 12.9 0.00 0.03 0.03 74 1014.9
20260506171454 18 287 1.6 9.7 0.00 0.03 0.03 74 1014.9
20260506170950 18 156 1.6 9.7 0.00 0.03 0.03 74 1014.9
20260506165951 18 238 1.6 12.9 0.00 0.03 0.03 74 1014.9
20260506165453 18 164 1.6 6.4 0.00 0.03 0.03 74 1014.9
20260506164951 18 202 3.2 11.3 0.00 0.03 0.03 75 1014.9
20260506164448 18 275 1.6 11.3 0.00 0.03 0.03 75 1014.8
20260506163939 18 274 1.6 9.7 0.00 0.03 0.03 75 1014.8
20260506163433 19 172 1.6 9.7 0.00 0.03 0.03 76 1014.8
20260506162926 19 231 1.6 9.7 0.00 0.03 0.03 75 1014.9
20260506162434 19 184 1.6 8.0 0.00 0.03 0.03 76 1015.0
20260506161914 19 143 0.0 8.0 0.00 0.03 0.03 75 1015.0
20260506161411 19 164 0.0 8.0 0.00 0.03 0.03 75 1014.9
20260506160917 19 221 1.6 8.0 0.00 0.03 0.03 75 1014.9
20260506160358 19 186 1.6 8.0 0.00 0.03 0.03 75 1015.0
20260506155850 19 332 3.2 17.7 0.00 0.03 0.03 74 1015.1
20260506155345 19 295 3.2 17.7 0.00 0.03 0.03 74 1014.9
20260506154839 19 279 1.6 14.5 0.00 0.03 0.03 74 1015.1
20260506154332 19 273 3.2 14.5 0.00 0.03 0.03 74 1014.9
20260506153320 19 199 3.2 17.7 0.00 0.03 0.03 73 1014.9
20260506152308 19 254 3.2 9.7 0.00 0.03 0.03 74 1014.9
20260506151807 19 188 3.2 17.7 0.00 0.03 0.03 74 1014.9
20260506151306 19 207 3.2 17.7 0.00 0.03 0.03 75 1014.9
20260506150806 19 139 3.2 17.7 0.00 0.03 0.03 75 1015.0
20260506150306 19 295 3.2 27.4 0.00 0.03 0.03 75 1014.9
20260506145805 19 191 3.2 27.4 0.00 0.03 0.03 75 1014.9
20260506144805 19 269 3.2 16.1 0.00 0.05 0.03 78 1015.0
20260506144304 18 245 4.8 16.1 0.00 0.05 0.03 78 1015.0
20260506143804 19 340 3.2 14.5 0.00 0.05 0.03 78 1015.0
20260506143305 19 287 0.0 9.7 0.00 0.05 0.03 77 1014.9
20260506142806 19 272 0.0 11.3 0.00 0.05 0.03 77 1015.0
20260506142305 19 168 0.0 11.3 0.00 0.05 0.03 75 1014.9
20260506141802 19 163 0.0 6.4 0.00 0.05 0.03 75 1014.9
20260506141300 20 161 1.6 17.7 0.00 0.05 0.03 74 1014.9
20260506140800 20 275 3.2 17.7 0.00 0.05 0.03 72 1014.8
20260506140300 20 132 1.6 12.9 0.00 0.05 0.03 71 1014.8
20260506135754 20 178 1.6 9.7 0.00 0.05 0.03 71 1014.9
20260506135254 20 252 3.2 16.1 0.00 0.05 0.03 70 1014.7
20260506134755 20 166 4.8 16.1 0.00 0.05 0.03 70 1014.8
20260506133753 20 186 1.6 9.7 0.00 0.05 0.03 68 1015.0
20260506133252 20 148 0.0 6.4 0.00 0.05 0.03 67 1015.2
20260506132752 20 245 0.0 6.4 0.00 0.05 0.03 67 1015.2
20260506132252 20 201 0.0 8.0 0.00 0.05 0.03 66 1015.2
20260506131752 20 268 0.0 8.0 0.00 0.05 0.03 65 1015.2
20260506131253 20 174 1.6 8.0 0.00 0.05 0.03 65 1015.4
20260506125745 20 156 1.6 9.7 0.00 0.05 0.03 63 1015.5
20260506124746 20 150 3.2 16.1 0.00 0.05 0.03 62 1015.6
20260506124246 20 101 3.2 16.1 0.00 0.05 0.03 62 1015.6
20260506123747 21 173 3.2 12.9 0.00 0.05 0.03 61 1015.6
20260506123247 21 199 3.2 12.9 0.00 0.05 0.03 61 1015.5
20260506122746 21 169 1.6 9.7 0.00 0.05 0.03 60 1015.5
20260506121246 21 142 3.2 16.1 0.00 0.05 0.03 60 1015.2
20260506120247 21 156 4.8 22.5 0.00 0.05 0.03 58 1015.2
20260506115745 21 143 4.8 22.5 0.00 0.05 0.03 58 1015.1
20260506114244 21 156 3.2 19.3 0.00 0.05 0.03 59 1015.1
20260506113745 21 158 4.8 19.3 0.00 0.05 0.03 59 1015.1
20260506112239 21 340 3.2 20.9 0.00 0.05 0.03 58 1015.1
20260506111742 21 45 3.2 12.9 0.00 0.05 0.03 60 1015.1
20260506111241 21 171 3.2 22.5 0.00 0.05 0.03 60 1015.2
20260506110737 21 166 4.8 22.5 0.00 0.05 0.03 59 1015.3
20260506110237 21 200 3.2 22.5 0.00 0.05 0.03 60 1015.3
20260506105736 21 124 4.8 22.5 0.00 0.05 0.03 60 1015.4
20260506105236 21 255 4.8 19.3 0.00 0.05 0.03 58 1015.6
20260506104736 21 308 3.2 22.5 0.00 0.05 0.03 58 1015.4
20260506104234 21 252 3.2 22.5 0.00 0.05 0.03 58 1015.5
20260506103734 21 78 1.6 8.0 0.00 0.05 0.03 60 1015.4
20260506103234 20 174 3.2 24.1 0.00 0.05 0.03 59 1015.6
20260506102734 21 193 3.2 24.1 0.00 0.05 0.03 56 1015.5
20260506102228 21 143 0.0 8.0 0.00 0.05 0.03 60 1015.4
20260506100720 20 271 3.2 19.3 0.00 0.05 0.03 59 1015.6
20260506100234 20 252 3.2 19.3 0.00 0.05 0.03 59 1015.7
20260506095719 20 84 0.0 16.1 0.00 0.05 0.03 58 1015.5
20260506095220 20 86 0.0 6.4 0.00 0.05 0.03 60 1015.4
20260506094720 20 71 1.6 6.4 0.00 0.05 0.03 61 1015.2
20260506094220 20 93 1.6 8.0 0.00 0.05 0.03 63 1015.3
20260506093722 20 121 1.6 11.3 0.00 0.05 0.03 61 1015.2
20260506093221 20 347 1.6 11.3 0.00 0.05 0.03 60 1015.4
20260506092720 20 96 1.6 4.8 0.00 0.05 0.03 61 1015.4
20260506092217 20 309 1.6 9.7 0.00 0.05 0.03 62 1015.4
20260506091717 20 92 1.6 9.7 0.00 0.05 0.03 62 1015.3
20260506091217 20 44 0.0 6.4 0.00 0.05 0.03 64 1015.3
20260506090720 20 96 1.6 12.9 0.00 0.05 0.03 65 1015.3
20260506090217 19 223 3.2 14.5 0.00 0.05 0.03 65 1015.3
20260506085718 19 162 4.8 14.5 0.00 0.05 0.03 66 1015.3
20260506085217 19 15 3.2 17.7 0.00 0.05 0.03 65 1015.4
20260506084205 18 127 1.6 9.7 0.00 0.05 0.03 68 1015.4
20260506083659 18 78 3.2 16.1 0.00 0.05 0.03 69 1015.4
20260506083153 18 82 4.8 16.1 0.00 0.05 0.03 70 1015.4
20260506082646 18 126 3.2 12.9 0.00 0.05 0.03 70 1015.3
20260506082141 18 92 3.2 11.3 0.00 0.05 0.03 70 1015.4
20260506081635 18 109 3.2 17.7 0.00 0.05 0.03 72 1015.3
20260506081131 17 129 3.2 17.7 0.00 0.05 0.03 72 1015.4
20260506080623 17 276 1.6 14.5 0.00 0.05 0.03 71 1015.5
20260506080131 17 38 1.6 8.0 0.00 0.05 0.03 71 1015.5
20260506072536 17 89 4.8 16.1 0.00 0.05 0.03 73 1015.3
20260506072031 17 53 4.8 16.1 0.00 0.05 0.03 73 1015.3
20260506071032 17 105 3.2 11.3 0.00 0.05 0.03 75 1015.3